Alpine, TX

5:54 PM CDT on September 19, 2019 (GMT -0500)
Alpine

Weather History for KE38 - August, 2019

Change the Weather History Date:

Sunday, August 25, 2019

  Actual Average (KMRF) Record (KMRF)
Temperature  
Mean Temperature 83 °F -  
Max Temperature 98 °F 82 °F 95 °F (2002)
Min Temperature 68 °F 57 °F 55 °F (1997)
Cooling Degree Days 18    
Growing Degree Days 33 (Base 50)    
Moisture  
Dew Point 51 °F    
Average Humidity 37    
Maximum Humidity 68    
Minimum Humidity 15    
Precipitation  
Precipitation 0.00 in - - ()
Sea Level Pressure  
Sea Level Pressure 30.09 in    
Wind  
Wind Speed 7 mph ()    
Max Wind Speed 13 mph    
Max Gust Speed -    
Visibility 10.0 miles    
Events      
Averages and records for this station are not official NWS values.
T = Trace of Precipitation, MM = Missing Value Source: Averaged Metar Reports

Daily Weather History Graph

Daily Weather History Graph

Search for Another Location

Airport or City:

Astronomy

Aug. 25, 2019 Rise Set
Actual Time 7:27 AM CDT 8:25 PM CDT
Civil Twilight 7:02 AM CDT 8:50 PM CDT
Nautical Twilight 6:33 AM CDT 9:19 PM CDT
Astronomical Twilight 6:03 AM CDT 9:49 PM CDT
Moon 2:16 AM CDT (8/25) 4:35 PM CDT (8/25)
Length of Visible Light 13h 47m
Length of Day
12h 58m
Waning Crescent, 29% of the Moon is Illuminated
Aug 25
Waning Crescent
Aug 30
New
Sep 5
First Quarter
Sep 13
Full
Sep 21
Last Quarter

Hourly Weather History & Observations

Time (CDT) Temp. Heat Index Dew Point Humidity Pressure Visibility Wind Dir Wind Speed Gust Speed Precip Events Conditions
12:15 AM 74.1 °F - 56.8 °F 55% 30.17 in 10.0 mi SW 9.2 mph - N/A   Clear
12:35 AM 71.8 °F - 57.9 °F 62% 30.17 in 10.0 mi SW 8.1 mph - N/A   Clear
12:55 AM 71.8 °F - 57.6 °F 61% 30.17 in 10.0 mi SW 5.8 mph - N/A   Clear
1:15 AM 70.9 °F - 57.2 °F 62% 30.17 in 10.0 mi SSW 5.8 mph - N/A   Clear
1:55 AM 73.4 °F - 56.1 °F 55% 30.16 in 10.0 mi SW 10.4 mph - N/A   Clear
2:15 AM 73.8 °F - 55.8 °F 53% 30.16 in 10.0 mi SW 8.1 mph - N/A   Clear
2:35 AM 72.1 °F - 56.3 °F 57% 30.16 in 10.0 mi West 9.2 mph - N/A   Clear
2:55 AM 71.1 °F - 56.3 °F 60% 30.15 in 10.0 mi WSW 8.1 mph - N/A   Clear
3:15 AM 72.5 °F - 56.3 °F 57% 30.14 in 10.0 mi WSW 11.5 mph - N/A   Clear
3:35 AM 72.7 °F - 56.5 °F 57% 30.13 in 10.0 mi WSW 12.7 mph - N/A   Clear
3:55 AM 72.5 °F - 57.0 °F 58% 30.13 in 10.0 mi SSW 10.4 mph - N/A   Clear
4:15 AM 70.2 °F - 57.7 °F 65% 30.13 in 10.0 mi SSW 11.5 mph - N/A   Clear
4:35 AM 69.3 °F - 58.1 °F 68% 30.12 in 10.0 mi SSW 8.1 mph - N/A   Clear
4:55 AM 70.7 °F - 58.1 °F 64% 30.12 in 10.0 mi SSW 10.4 mph - N/A   Clear
5:15 AM 70.7 °F - 57.6 °F 63% 30.12 in 10.0 mi SSW 8.1 mph - N/A   Clear
5:35 AM 70.7 °F - 57.0 °F 62% 30.11 in 10.0 mi SSW 4.6 mph - N/A   Clear
5:55 AM 70.2 °F - 57.2 °F 63% 30.12 in 10.0 mi SSW 5.8 mph - N/A   Clear
6:15 AM 70.5 °F - 56.5 °F 61% 30.12 in 10.0 mi South 5.8 mph - N/A   Clear
6:35 AM 70.3 °F - 56.7 °F 62% 30.12 in 10.0 mi SSE 5.8 mph - N/A   Clear
6:55 AM 69.4 °F - 56.8 °F 64% 30.12 in 10.0 mi SSE 4.6 mph - N/A   Clear
7:15 AM 68.5 °F - 57.2 °F 67% 30.13 in 10.0 mi Calm Calm - N/A   Clear
7:35 AM 72.7 °F - 55.6 °F 55% 30.13 in 10.0 mi WSW 6.9 mph - N/A   Clear
7:55 AM 71.8 °F - 55.9 °F 57% 30.13 in 10.0 mi West 6.9 mph - N/A   Clear
8:15 AM 74.1 °F - 56.1 °F 53% 30.13 in 10.0 mi SW 4.6 mph - N/A   Clear
8:35 AM 75.4 °F - 56.5 °F 52% 30.14 in 10.0 mi Calm Calm - N/A   Clear
8:55 AM 77.9 °F - 56.3 °F 47% 30.14 in 10.0 mi SW 8.1 mph - N/A   Clear
9:15 AM 80.2 °F 80.4 °F 56.1 °F 43% 30.15 in 10.0 mi West 8.1 mph - N/A   Clear
9:35 AM 81.7 °F 81.3 °F 55.6 °F 41% 30.15 in 10.0 mi West 11.5 mph - N/A   Clear
9:55 AM 83.3 °F 82.5 °F 55.6 °F 39% 30.14 in 10.0 mi West 11.5 mph - N/A   Clear
10:15 AM 84.9 °F 83.7 °F 55.6 °F 37% 30.14 in 10.0 mi WSW 9.2 mph - N/A   Clear
10:35 AM 86.2 °F 84.5 °F 54.9 °F 34% 30.14 in 10.0 mi WSW 9.2 mph - N/A   Clear
10:55 AM 87.4 °F 85.5 °F 54.3 °F 32% 30.14 in 10.0 mi WSW 5.8 mph - N/A   Clear
11:15 AM 89.2 °F 86.9 °F 53.2 °F 29% 30.14 in 10.0 mi WSW 5.8 mph - N/A   Clear
11:35 AM 89.4 °F - 50.7 °F 26% 30.14 in 10.0 mi West 4.6 mph - N/A   Clear
11:55 AM 90.7 °F - 50.2 °F 25% 30.13 in 10.0 mi SSW 4.6 mph - N/A   Clear
12:15 PM 92.1 °F - 49.6 °F 23% 30.13 in 10.0 mi Calm Calm - N/A   Clear
12:35 PM 93.2 °F - 48.7 °F 22% 30.13 in 10.0 mi SW 8.1 mph - N/A   Clear
12:55 PM 93.7 °F - 47.1 °F 20% 30.12 in 10.0 mi Calm Calm - N/A   Clear
1:15 PM 94.5 °F - 46.8 °F 19% 30.11 in 10.0 mi ESE 6.9 mph - N/A   Clear
1:35 PM 94.5 °F - 46.0 °F 19% 30.11 in 10.0 mi ENE 6.9 mph - N/A   Scattered Clouds
1:55 PM 95.0 °F - 45.7 °F 18% 30.10 in 10.0 mi Calm Calm - N/A   Scattered Clouds
2:15 PM 96.4 °F - 45.0 °F 17% 30.09 in 10.0 mi SE 11.5 mph - N/A   Scattered Clouds
2:35 PM 96.6 °F - 44.8 °F 17% 30.09 in 10.0 mi East 6.9 mph - N/A   Scattered Clouds
2:55 PM 96.8 °F - 43.5 °F 16% 30.08 in 10.0 mi Calm Calm - N/A   Scattered Clouds
3:15 PM 94.6 °F - 44.8 °F 18% 30.07 in 10.0 mi Calm Calm - N/A   Mostly Cloudy
3:35 PM 96.4 °F - 43.9 °F 16% 30.06 in 10.0 mi WNW 8.1 mph - N/A   Mostly Cloudy
3:55 PM 95.7 °F - 43.7 °F 17% 30.05 in 10.0 mi North 4.6 mph - N/A   Clear
4:15 PM 98.4 °F - 44.1 °F 16% 30.04 in 10.0 mi ENE 4.6 mph - N/A   Clear
4:55 PM 97.2 °F - 42.8 °F 15% 30.03 in 10.0 mi SSW 3.5 mph - N/A   Clear
5:15 PM 96.6 °F - 41.9 °F 15% 30.02 in 10.0 mi WSW 4.6 mph - N/A   Clear
5:35 PM 97.0 °F - 42.8 °F 15% 30.02 in 10.0 mi SW 6.9 mph - N/A   Clear
5:55 PM 97.5 °F - 43.0 °F 15% 30.02 in 10.0 mi West 6.9 mph - N/A   Clear
6:15 PM 97.2 °F - 42.6 °F 15% 30.01 in 10.0 mi Calm Calm - N/A   Clear
6:35 PM 97.0 °F - 42.6 °F 15% 30.01 in 10.0 mi NNW 8.1 mph - N/A   Clear
6:55 PM 96.8 °F - 42.1 °F 15% 30.01 in 10.0 mi WNW 3.5 mph - N/A   Clear
7:15 PM 96.3 °F - 46.0 °F 18% 30.00 in 10.0 mi WNW 9.2 mph - N/A   Clear
7:35 PM 94.6 °F - 45.3 °F 18% 30.00 in 10.0 mi NW 10.4 mph - N/A   Clear
7:55 PM 93.9 °F - 46.6 °F 20% 30.01 in 10.0 mi WNW 9.2 mph - N/A   Clear
8:15 PM 91.2 °F - 47.7 °F 22% 30.01 in 10.0 mi WNW 5.8 mph - N/A   Clear
8:35 PM 88.2 °F - 48.2 °F 25% 30.01 in 10.0 mi WNW 5.8 mph - N/A   Clear
8:55 PM 87.1 °F - 48.2 °F 26% 30.02 in 10.0 mi West 4.6 mph - N/A   Scattered Clouds
9:15 PM 87.6 °F - 47.5 °F 25% 30.02 in 10.0 mi West 6.9 mph - N/A   Scattered Clouds
9:35 PM 86.2 °F - 47.8 °F 26% 30.03 in 10.0 mi WSW 6.9 mph - N/A   Scattered Clouds
9:55 PM 86.2 °F - 48.0 °F 27% 30.03 in 10.0 mi SW 4.6 mph - N/A   Scattered Clouds
10:15 PM 85.5 °F - 48.4 °F 28% 30.04 in 10.0 mi South 5.8 mph - N/A   Clear
10:35 PM 86.4 °F - 47.3 °F 26% 30.04 in 10.0 mi SSE 5.8 mph - N/A   Scattered Clouds
11:15 PM 84.0 °F - 48.4 °F 29% 30.05 in 10.0 mi South 6.9 mph - N/A   Mostly Cloudy
11:35 PM 83.7 °F - 48.6 °F 29% 30.06 in 10.0 mi SSE 8.1 mph - N/A   Mostly Cloudy
11:55 PM 82.6 °F - 49.1 °F 31% 30.06 in 10.0 mi South 9.2 mph - N/A   Scattered Clouds